Tracking 19634 objects as of 21-May-2019
HD Live streaming from Space Station
objects crossing your sky now

CLEMENTINE

Track CLEMENTINE now!
10-day predictions
CLEMENTINE is classified as:


NORAD ID: 25978
Int'l Code: 1999-064B
Perigee: 578.1 km
Apogee: 591.4 km
Inclination: 98.1 °
Period: 96.2 minutes
Semi major axis: 6955 km
RCS: 0.785 m2 (medium)
Launch date: December 3, 1999
Source: France (FR)
Launch site: FRENCH GUIANA (FRGUI)

Intelligence gathering, part of an experimental eavesdropping program.
aabbcc
Your satellite tracking list
Your tracking list is empty




NASA's NSSDC Master Catalog

Two Line Element Set (TLE):
1 25978U 99064B   19141.74501931  .00000326  00000-0  34278-4 0  9994
2 25978  98.1477  39.7192 0009501 116.2549 243.9649 14.96536849 56231
Source of the keplerian elements: AFSPC